N13BE KMDT-KHEF

Flight info

Callsign N13BE
Flight time 0h 59m
Altitude 6000
Route HGR LDN V453 CSN
Aircraft BE33/L-VGD/C

Departure

Time 2026-05-03 21:33
Airport Harrisburg International Airport (KMDT)

Arrival

Time 2026-05-03 22:32
Airport Manassas Regional Airport/Harry P. Davis Field (KHEF)
Time Latitude Longitude Altitude Speed Heading
2026-05-03 21:26 40.19597 -76.76039 307 ft 0 kts 93°
2026-05-03 21:27 40.19597 -76.76038 307 ft 0 kts 93°
2026-05-03 21:28 40.19540 -76.76048 306 ft 15 kts 206°
2026-05-03 21:28 40.19456 -76.75999 304 ft 16 kts 121°
2026-05-03 21:28 40.19459 -76.75857 305 ft 16 kts 63°
2026-05-03 21:28 40.19450 -76.75703 305 ft 17 kts 98°
2026-05-03 21:29 40.19377 -76.75583 305 ft 17 kts 138°
2026-05-03 21:29 40.19300 -76.75509 304 ft 0 kts 137°
2026-05-03 21:29 40.19285 -76.75497 304 ft 7 kts 159°
2026-05-03 21:29 40.19205 -76.75509 300 ft 13 kts 201°
2026-05-03 21:30 40.19137 -76.75549 297 ft 5 kts 204°
2026-05-03 21:30 40.19136 -76.75549 297 ft 0 kts 205°
2026-05-03 21:31 40.19126 -76.75555 296 ft 2 kts 207°
2026-05-03 21:31 40.19092 -76.75587 295 ft 13 kts 240°
2026-05-03 21:32 40.19146 -76.75824 294 ft 47 kts 295°
2026-05-03 21:32 40.19363 -76.76389 347 ft 81 kts 291°
2026-05-03 21:32 40.19599 -76.77080 550 ft 87 kts 291°
2026-05-03 21:32 40.19819 -76.77834 797 ft 90 kts 287°
2026-05-03 21:33 40.20050 -76.78640 948 ft 101 kts 290°
2026-05-03 21:33 40.20382 -76.79472 1148 ft 102 kts 298°
2026-05-03 21:33 40.20734 -76.80250 1362 ft 98 kts 298°
2026-05-03 21:33 40.21086 -76.81023 1566 ft 97 kts 298°
2026-05-03 21:34 40.21431 -76.81773 1760 ft 97 kts 298°
2026-05-03 21:34 40.21773 -76.82527 1955 ft 96 kts 298°
2026-05-03 21:34 40.22106 -76.83272 2145 ft 95 kts 298°
2026-05-03 21:34 40.22438 -76.84019 2331 ft 94 kts 298°
2026-05-03 21:35 40.22766 -76.84766 2520 ft 94 kts 298°
2026-05-03 21:35 40.22853 -76.85592 2699 ft 100 kts 256°
2026-05-03 21:35 40.22465 -76.86378 2864 ft 106 kts 240°
2026-05-03 21:35 40.21995 -76.87141 3036 ft 108 kts 239°
2026-05-03 21:36 40.21521 -76.87919 3215 ft 109 kts 242°
2026-05-03 21:36 40.21084 -76.88730 3397 ft 109 kts 243°
2026-05-03 21:36 40.20655 -76.89542 3584 ft 110 kts 243°
2026-05-03 21:36 40.20217 -76.90373 3776 ft 110 kts 243°
2026-05-03 21:37 40.19780 -76.91206 3970 ft 110 kts 243°
2026-05-03 21:37 40.19349 -76.92031 4160 ft 110 kts 243°
2026-05-03 21:37 40.18917 -76.92855 4348 ft 110 kts 243°
2026-05-03 21:37 40.18487 -76.93677 4535 ft 111 kts 243°
2026-05-03 21:38 40.18050 -76.94517 4732 ft 112 kts 243°
2026-05-03 21:38 40.17607 -76.95360 4933 ft 113 kts 243°
2026-05-03 21:38 40.17166 -76.96204 5133 ft 113 kts 243°
2026-05-03 21:38 40.16724 -76.97050 5332 ft 113 kts 243°
2026-05-03 21:39 40.16285 -76.97890 5527 ft 113 kts 243°
2026-05-03 21:39 40.15834 -76.98750 5725 ft 112 kts 243°
2026-05-03 21:39 40.15393 -76.99591 5918 ft 112 kts 244°
2026-05-03 21:39 40.14941 -77.00463 6005 ft 121 kts 244°
2026-05-03 21:40 40.14448 -77.01418 6015 ft 133 kts 243°
2026-05-03 21:40 40.13909 -77.02457 6016 ft 143 kts 243°
2026-05-03 21:40 40.13331 -77.03561 6015 ft 150 kts 242°
2026-05-03 21:40 40.12732 -77.04705 6016 ft 155 kts 242°
2026-05-03 21:41 40.12110 -77.05888 6016 ft 159 kts 242°
2026-05-03 21:41 40.11488 -77.07069 6015 ft 158 kts 242°
2026-05-03 21:41 40.10863 -77.08257 6017 ft 156 kts 242°
2026-05-03 21:41 40.10249 -77.09425 6016 ft 156 kts 242°
2026-05-03 21:42 40.09639 -77.10589 6015 ft 155 kts 242°
2026-05-03 21:42 40.09027 -77.11751 6011 ft 155 kts 242°
2026-05-03 21:42 40.08423 -77.12901 6012 ft 154 kts 242°
2026-05-03 21:42 40.07814 -77.14059 6016 ft 154 kts 242°
2026-05-03 21:43 40.07210 -77.15206 6017 ft 154 kts 242°
2026-05-03 21:43 40.06607 -77.16352 6018 ft 154 kts 242°
2026-05-03 21:43 40.06000 -77.17503 6018 ft 154 kts 242°
2026-05-03 21:43 40.05391 -77.18662 6019 ft 154 kts 242°
2026-05-03 21:44 40.04783 -77.19814 6018 ft 154 kts 242°
2026-05-03 21:44 40.04178 -77.20963 6019 ft 154 kts 242°
2026-05-03 21:44 40.03561 -77.22134 6020 ft 154 kts 242°
2026-05-03 21:44 40.02954 -77.23284 6020 ft 155 kts 242°
2026-05-03 21:45 40.02346 -77.24437 6020 ft 155 kts 242°
2026-05-03 21:45 40.01734 -77.25596 6013 ft 155 kts 242°
2026-05-03 21:45 40.01126 -77.26746 6011 ft 155 kts 242°
2026-05-03 21:45 40.00510 -77.27910 6013 ft 154 kts 242°
2026-05-03 21:46 39.99905 -77.29058 6018 ft 154 kts 242°
2026-05-03 21:46 39.99294 -77.30214 6013 ft 154 kts 242°
2026-05-03 21:46 39.98681 -77.31371 6014 ft 154 kts 242°
2026-05-03 21:46 39.98073 -77.32519 6010 ft 154 kts 242°
2026-05-03 21:47 39.97465 -77.33669 6010 ft 154 kts 242°
2026-05-03 21:47 39.96862 -77.34808 6013 ft 154 kts 242°
2026-05-03 21:47 39.96249 -77.35964 6013 ft 153 kts 242°
2026-05-03 21:47 39.95649 -77.37099 6014 ft 153 kts 242°
2026-05-03 21:48 39.95040 -77.38247 6014 ft 154 kts 242°
2026-05-03 21:48 39.94428 -77.39397 6014 ft 154 kts 242°
2026-05-03 21:48 39.93819 -77.40542 6013 ft 154 kts 242°
2026-05-03 21:48 39.93208 -77.41692 6014 ft 154 kts 242°
2026-05-03 21:49 39.92604 -77.42827 6012 ft 154 kts 242°
2026-05-03 21:49 39.91988 -77.43987 6013 ft 154 kts 242°
2026-05-03 21:49 39.91379 -77.45131 6014 ft 154 kts 242°
2026-05-03 21:49 39.90774 -77.46270 6015 ft 154 kts 242°
2026-05-03 21:50 39.90166 -77.47412 6015 ft 154 kts 242°
2026-05-03 21:50 39.89558 -77.48557 6012 ft 154 kts 242°
2026-05-03 21:50 39.88949 -77.49700 6013 ft 153 kts 242°
2026-05-03 21:50 39.88339 -77.50847 6014 ft 152 kts 242°
2026-05-03 21:51 39.87740 -77.51973 6018 ft 152 kts 242°
2026-05-03 21:51 39.87139 -77.53100 6018 ft 152 kts 242°
2026-05-03 21:51 39.86533 -77.54239 6018 ft 153 kts 242°
2026-05-03 21:51 39.85926 -77.55376 6022 ft 152 kts 242°
2026-05-03 21:52 39.85323 -77.56507 6021 ft 153 kts 242°
2026-05-03 21:52 39.84720 -77.57639 6024 ft 153 kts 242°
2026-05-03 21:52 39.84107 -77.58789 6031 ft 153 kts 242°
2026-05-03 21:52 39.83498 -77.59930 6022 ft 154 kts 242°
2026-05-03 21:53 39.82888 -77.61073 6022 ft 154 kts 242°
2026-05-03 21:53 39.82282 -77.62206 6024 ft 154 kts 242°
2026-05-03 21:53 39.81672 -77.63349 6024 ft 153 kts 242°
2026-05-03 21:53 39.81068 -77.64478 6028 ft 153 kts 242°
2026-05-03 21:54 39.80453 -77.65631 6035 ft 153 kts 241°
2026-05-03 21:54 39.79843 -77.66771 6038 ft 154 kts 241°
2026-05-03 21:54 39.79237 -77.67905 6037 ft 154 kts 241°
2026-05-03 21:54 39.78615 -77.69067 6037 ft 155 kts 241°
2026-05-03 21:55 39.78006 -77.70204 6038 ft 155 kts 241°
2026-05-03 21:55 39.77386 -77.71363 6037 ft 155 kts 241°
2026-05-03 21:55 39.76763 -77.72522 6036 ft 156 kts 241°
2026-05-03 21:55 39.76144 -77.73679 6036 ft 156 kts 241°
2026-05-03 21:56 39.75531 -77.74823 6035 ft 156 kts 241°
2026-05-03 21:56 39.74911 -77.75980 6039 ft 156 kts 240°
2026-05-03 21:56 39.74294 -77.77131 6036 ft 156 kts 240°
2026-05-03 21:56 39.73667 -77.78295 6037 ft 156 kts 241°
2026-05-03 21:57 39.73047 -77.79450 6037 ft 156 kts 241°
2026-05-03 21:57 39.72429 -77.80601 6037 ft 156 kts 241°
2026-05-03 21:57 39.71804 -77.81763 6036 ft 156 kts 240°
2026-05-03 21:57 39.71186 -77.82915 6037 ft 156 kts 241°
2026-05-03 21:58 39.70566 -77.84067 6038 ft 156 kts 241°
2026-05-03 21:58 39.69912 -77.85206 6034 ft 160 kts 229°
2026-05-03 21:58 39.68909 -77.85863 6046 ft 166 kts 206°
2026-05-03 21:58 39.67806 -77.86361 6042 ft 167 kts 204°
2026-05-03 21:59 39.66698 -77.86838 6036 ft 168 kts 203°
2026-05-03 21:59 39.65578 -77.87312 6038 ft 168 kts 203°
2026-05-03 21:59 39.64471 -77.87778 6038 ft 168 kts 203°
2026-05-03 21:59 39.63358 -77.88247 6038 ft 168 kts 203°
2026-05-03 22:00 39.62246 -77.88714 6038 ft 168 kts 203°
2026-05-03 22:00 39.61134 -77.89180 6039 ft 168 kts 203°
2026-05-03 22:00 39.60029 -77.89644 6038 ft 168 kts 203°
2026-05-03 22:00 39.58912 -77.90112 6039 ft 168 kts 203°
2026-05-03 22:01 39.57789 -77.90582 6039 ft 168 kts 203°
2026-05-03 22:01 39.56682 -77.91045 6038 ft 168 kts 203°
2026-05-03 22:01 39.55562 -77.91514 6039 ft 168 kts 203°
2026-05-03 22:01 39.54451 -77.91980 6038 ft 168 kts 203°
2026-05-03 22:02 39.53350 -77.92440 6039 ft 168 kts 203°
2026-05-03 22:02 39.52226 -77.92910 6040 ft 168 kts 203°
2026-05-03 22:02 39.51114 -77.93373 6041 ft 168 kts 203°
2026-05-03 22:02 39.50011 -77.93836 6040 ft 168 kts 203°
2026-05-03 22:03 39.48894 -77.94300 6038 ft 168 kts 203°
2026-05-03 22:03 39.47787 -77.94763 6039 ft 168 kts 203°
2026-05-03 22:03 39.46666 -77.95231 6041 ft 168 kts 203°
2026-05-03 22:03 39.45558 -77.95695 6041 ft 168 kts 203°
2026-05-03 22:04 39.44427 -77.96165 6039 ft 168 kts 203°
2026-05-03 22:04 39.43323 -77.96626 6039 ft 168 kts 203°
2026-05-03 22:04 39.42211 -77.97087 6040 ft 167 kts 203°
2026-05-03 22:04 39.41090 -77.97555 6040 ft 167 kts 203°
2026-05-03 22:05 39.39978 -77.98019 6040 ft 167 kts 203°
2026-05-03 22:05 39.38864 -77.98478 6041 ft 167 kts 202°
2026-05-03 22:05 39.37760 -77.98940 6041 ft 167 kts 202°
2026-05-03 22:05 39.36653 -77.99400 6040 ft 167 kts 202°
2026-05-03 22:06 39.35556 -77.99858 6040 ft 167 kts 203°
2026-05-03 22:06 39.34439 -78.00321 6041 ft 167 kts 203°
2026-05-03 22:06 39.33334 -78.00782 6042 ft 166 kts 203°
2026-05-03 22:06 39.32236 -78.01238 6041 ft 166 kts 202°
2026-05-03 22:07 39.31124 -78.01699 6040 ft 167 kts 203°
2026-05-03 22:07 39.30023 -78.02157 6040 ft 166 kts 203°
2026-05-03 22:07 39.28916 -78.02615 6041 ft 166 kts 203°
2026-05-03 22:07 39.27824 -78.03069 6042 ft 166 kts 202°
2026-05-03 22:08 39.26719 -78.03527 6044 ft 166 kts 202°
2026-05-03 22:08 39.25623 -78.03981 6042 ft 166 kts 203°
2026-05-03 22:08 39.24516 -78.04441 6042 ft 166 kts 202°
2026-05-03 22:08 39.23413 -78.04895 6041 ft 166 kts 203°
2026-05-03 22:09 39.22312 -78.05351 6042 ft 166 kts 203°
2026-05-03 22:09 39.21224 -78.05804 6042 ft 166 kts 203°
2026-05-03 22:09 39.20123 -78.06261 6043 ft 166 kts 203°
2026-05-03 22:10 39.17924 -78.07172 6043 ft 165 kts 202°
2026-05-03 22:10 39.16824 -78.07625 6043 ft 165 kts 203°
2026-05-03 22:10 39.15738 -78.08075 6044 ft 165 kts 202°
2026-05-03 22:10 39.14628 -78.08535 6046 ft 165 kts 202°
2026-05-03 22:11 39.13545 -78.08983 6045 ft 165 kts 202°
2026-05-03 22:11 39.12451 -78.09433 6044 ft 165 kts 202°
2026-05-03 22:11 39.11348 -78.09888 6046 ft 165 kts 203°
2026-05-03 22:11 39.10248 -78.10341 6045 ft 165 kts 202°
2026-05-03 22:12 39.09154 -78.10793 6046 ft 165 kts 202°
2026-05-03 22:12 39.08062 -78.11243 6045 ft 165 kts 202°
2026-05-03 22:12 39.06976 -78.11692 6029 ft 166 kts 203°
2026-05-03 22:12 39.05868 -78.12150 5994 ft 167 kts 202°
2026-05-03 22:13 39.04750 -78.12610 5990 ft 166 kts 202°
2026-05-03 22:13 39.03649 -78.13063 5989 ft 166 kts 202°
2026-05-03 22:13 39.02551 -78.13515 5990 ft 165 kts 202°
2026-05-03 22:13 39.01455 -78.13965 5992 ft 165 kts 202°
2026-05-03 22:14 39.00355 -78.14418 5992 ft 165 kts 202°
2026-05-03 22:14 38.99269 -78.14864 5992 ft 164 kts 202°
2026-05-03 22:14 38.98177 -78.15311 5990 ft 164 kts 202°
2026-05-03 22:14 38.97097 -78.15756 5993 ft 164 kts 202°
2026-05-03 22:15 38.95996 -78.16209 5993 ft 164 kts 202°
2026-05-03 22:15 38.94918 -78.16651 5993 ft 164 kts 202°
2026-05-03 22:15 38.93824 -78.17102 5994 ft 164 kts 202°
2026-05-03 22:15 38.92744 -78.17545 5996 ft 164 kts 202°
2026-05-03 22:16 38.91652 -78.17996 5996 ft 164 kts 202°
2026-05-03 22:16 38.90560 -78.18441 5996 ft 164 kts 202°
2026-05-03 22:16 38.89475 -78.18888 5995 ft 164 kts 202°
2026-05-03 22:16 38.88378 -78.19337 5993 ft 164 kts 203°
2026-05-03 22:17 38.87293 -78.19783 5988 ft 164 kts 202°
2026-05-03 22:17 38.86190 -78.20179 5984 ft 167 kts 189°
2026-05-03 22:17 38.85086 -78.19723 6000 ft 173 kts 143°
2026-05-03 22:17 38.84257 -78.18617 6002 ft 174 kts 130°
2026-05-03 22:18 38.83493 -78.17423 6000 ft 174 kts 128°
2026-05-03 22:18 38.82731 -78.16206 5999 ft 175 kts 128°
2026-05-03 22:18 38.81969 -78.14987 5998 ft 175 kts 128°
2026-05-03 22:18 38.81205 -78.13768 5996 ft 176 kts 128°
2026-05-03 22:19 38.80433 -78.12535 5995 ft 176 kts 128°
2026-05-03 22:19 38.79665 -78.11306 5996 ft 177 kts 128°
2026-05-03 22:19 38.78895 -78.10075 5996 ft 177 kts 128°
2026-05-03 22:19 38.78129 -78.08853 5996 ft 177 kts 128°
2026-05-03 22:20 38.77351 -78.07610 5994 ft 177 kts 128°
2026-05-03 22:20 38.76581 -78.06377 5996 ft 177 kts 128°
2026-05-03 22:20 38.75812 -78.05154 5995 ft 177 kts 128°
2026-05-03 22:20 38.75037 -78.03918 5925 ft 181 kts 128°
2026-05-03 22:21 38.74235 -78.02637 5798 ft 187 kts 128°
2026-05-03 22:21 38.73417 -78.01334 5672 ft 190 kts 128°
2026-05-03 22:21 38.72573 -77.99989 5543 ft 193 kts 128°
2026-05-03 22:21 38.71733 -77.98652 5418 ft 194 kts 128°
2026-05-03 22:22 38.70880 -77.97295 5290 ft 195 kts 128°
2026-05-03 22:22 38.70025 -77.95932 5163 ft 196 kts 128°
2026-05-03 22:22 38.69168 -77.94569 5032 ft 196 kts 128°
2026-05-03 22:22 38.68318 -77.93218 4900 ft 196 kts 128°
2026-05-03 22:23 38.67464 -77.91860 4771 ft 196 kts 128°
2026-05-03 22:23 38.66605 -77.90494 4630 ft 196 kts 128°
2026-05-03 22:23 38.65744 -77.89127 4500 ft 196 kts 128°
2026-05-03 22:23 38.64888 -77.87767 4357 ft 196 kts 128°
2026-05-03 22:24 38.64385 -77.86204 4210 ft 193 kts 88°
2026-05-03 22:24 38.64593 -77.84543 4085 ft 189 kts 71°
2026-05-03 22:24 38.64948 -77.82936 3953 ft 188 kts 69°
2026-05-03 22:24 38.65323 -77.81313 3818 ft 188 kts 69°
2026-05-03 22:25 38.65689 -77.79717 3696 ft 189 kts 69°
2026-05-03 22:25 38.66061 -77.78104 3573 ft 188 kts 69°
2026-05-03 22:25 38.66428 -77.76498 3448 ft 188 kts 69°
2026-05-03 22:25 38.66797 -77.74885 3323 ft 188 kts 69°
2026-05-03 22:26 38.67159 -77.73295 3199 ft 188 kts 69°
2026-05-03 22:26 38.67523 -77.71682 3074 ft 188 kts 69°
2026-05-03 22:26 38.67893 -77.70071 2950 ft 186 kts 70°
2026-05-03 22:26 38.68251 -77.68504 2824 ft 180 kts 69°
2026-05-03 22:27 38.68595 -77.66985 2697 ft 176 kts 69°
2026-05-03 22:27 38.68933 -77.65501 2569 ft 172 kts 69°
2026-05-03 22:27 38.69261 -77.64062 2446 ft 169 kts 69°
2026-05-03 22:27 38.69585 -77.62634 2315 ft 167 kts 69°
2026-05-03 22:28 38.69873 -77.61194 2183 ft 167 kts 77°
2026-05-03 22:28 38.70012 -77.59724 2063 ft 166 kts 79°
2026-05-03 22:28 38.70142 -77.58247 1933 ft 166 kts 79°
2026-05-03 22:28 38.70422 -77.56840 1806 ft 161 kts 60°
2026-05-03 22:29 38.70890 -77.55541 1683 ft 159 kts 60°
2026-05-03 22:29 38.71287 -77.54256 1544 ft 159 kts 78°
2026-05-03 22:29 38.71006 -77.52898 1404 ft 160 kts 124°
2026-05-03 22:29 38.70167 -77.51993 1272 ft 157 kts 147°
2026-05-03 22:30 38.69259 -77.51267 1224 ft 150 kts 150°
2026-05-03 22:30 38.68510 -77.50493 1274 ft 129 kts 110°
2026-05-03 22:30 38.68785 -77.49702 1312 ft 91 kts
2026-05-03 22:30 38.69432 -77.49867 1066 ft 100 kts 335°
2026-05-03 22:31 38.70065 -77.50254 870 ft 100 kts 327°
2026-05-03 22:31 38.70650 -77.50665 668 ft 90 kts 326°
2026-05-03 22:31 38.71166 -77.51028 429 ft 80 kts 326°
2026-05-03 22:31 38.71632 -77.51357 258 ft 69 kts 327°
2026-05-03 22:32 38.72021 -77.51639 177 ft 57 kts 333°
2026-05-03 22:32 38.72310 -77.51853 178 ft 43 kts 324°
2026-05-03 22:32 38.72546 -77.52029 182 ft 27 kts 345°
2026-05-03 22:32 38.72644 -77.52089 184 ft 14 kts 351°
2026-05-03 22:33 38.72722 -77.51983 186 ft 19 kts 62°
2026-05-03 22:33 38.72779 -77.51843 189 ft 16 kts 64°
2026-05-03 22:33 38.72829 -77.51730 191 ft 13 kts 53°
2026-05-03 22:33 38.72873 -77.51631 191 ft 12 kts 59°
2026-05-03 22:34 38.72876 -77.51527 189 ft 15 kts 145°
2026-05-03 22:34 38.72784 -77.51454 187 ft 14 kts 143°
2026-05-03 22:34 38.72738 -77.51373 185 ft 8 kts 158°
2026-05-03 22:34 38.72721 -77.51362 185 ft 0 kts 145°